Weather History for KPLN - March, 2013

Change the Weather History Date:

Wednesday, March 20, 2013

  Actual Average Record
Temperature  
Mean Temperature 22 °F -  
Max Temperature 26 °F 38 °F 84 °F (2012)
Min Temperature 19 °F 19 °F -14 °F (1965)
Degree Days  
Heating Degree Days 43    
Moisture  
Dew Point 16 °F    
Average Humidity 72    
Maximum Humidity 86    
Minimum Humidity 59    
Precipitation  
Precipitation 0.02 in - - ()
Sea Level Pressure  
Sea Level Pressure 29.81 in    
Wind  
Wind Speed 12 mph (West)    
Max Wind Speed 20 mph    
Max Gust Speed 24 mph    
Visibility 5 miles    
Events Fog , Snow    
Averages and records for this station are not official NWS values.
T = Trace of Precipitation, MM = Missing Value Source: NWS Daily Summary

Daily Weather History Graph

Daily Weather History Graph

Search for Another Location

Airport or City:

Trip Planner

Search our weather history database for the weather conditions in past years. The results will help you decide how hot, cold, wet, or windy it might be!

Date:

Astronomy

Mar. 20, 2013 Rise Set
Actual Time 7:41 AM EDT 7:52 PM EDT
Civil Twilight 7:12 AM EDT 8:21 PM EDT
Nautical Twilight 6:37 AM EDT 8:56 PM EDT
Astronomical Twilight 6:01 AM EDT 9:32 PM EDT
Moon 1:10 PM EDT (3/20) 3:37 AM EDT (3/20)
Length of Visible Light 13h 09m
Length of Day
12h 10m
First Quarter, 59% of the Moon is Illuminated
Mar 20
First Quarter
Mar 27
Full
Apr 3
Last Quarter
Apr 10
New
Apr 18
First Quarter

Hourly Weather History & Observations

Time (EDT) Temp. Windchill Dew Point Humidity Pressure Visibility Wind Dir Wind Speed Gust Speed Precip Events Conditions
12:54 AM 24.1 °F 12.0 °F 14.0 °F 65% 29.81 in 10.0 mi West 13.8 mph 21.9 mph N/A   Overcast
1:54 AM 24.1 °F 14.4 °F 12.9 °F 62% 29.81 in 10.0 mi West 9.2 mph - N/A   Overcast
2:02 AM 24.8 °F 15.3 °F 14.0 °F 64% 29.78 in 5.0 mi West 9.2 mph 17.3 mph 0.00 in Snow Light Snow
2:12 AM 23.0 °F 12.4 °F 15.8 °F 74% 29.78 in 2.5 mi West 10.4 mph 18.4 mph 0.00 in Snow Light Snow
2:19 AM 23.0 °F 13.1 °F 15.8 °F 74% 29.78 in 8.0 mi West 9.2 mph - 0.00 in   Overcast
2:45 AM 23.0 °F 10.6 °F 14.0 °F 68% 29.78 in 9.0 mi West 13.8 mph 21.9 mph 0.00 in   Overcast
2:54 AM 23.0 °F 12.4 °F 14.0 °F 68% 29.81 in 8.0 mi West 10.4 mph 20.7 mph 0.00 in Snow Light Snow
3:04 AM 23.0 °F 12.4 °F 14.0 °F 68% 29.78 in 8.0 mi West 10.4 mph - 0.00 in Snow Light Snow
3:15 AM 23.0 °F 11.7 °F 14.0 °F 68% 29.78 in 9.0 mi WNW 11.5 mph - 0.00 in Snow Light Snow
3:54 AM 23.0 °F 11.1 °F 12.9 °F 65% 29.81 in 10.0 mi WNW 12.7 mph 20.7 mph 0.00 in   Overcast
4:54 AM 21.9 °F 9.8 °F 12.0 °F 66% 29.81 in 10.0 mi WNW 12.7 mph - N/A   Overcast
5:47 AM 21.2 °F 7.8 °F 12.2 °F 68% 29.78 in 3.0 mi West 15.0 mph 23.0 mph 0.00 in Snow Light Snow
5:54 AM 21.0 °F 9.9 °F 12.9 °F 71% 29.82 in 2.5 mi West 10.4 mph 23.0 mph 0.00 in Snow Light Snow
6:01 AM 21.2 °F 8.9 °F 14.0 °F 74% 29.78 in 3.0 mi West 12.7 mph - 0.00 in Snow Light Snow
6:43 AM 21.2 °F 8.3 °F 12.2 °F 68% 29.78 in 7.0 mi West 13.8 mph - 0.00 in Snow Light Snow
6:54 AM 21.0 °F 9.3 °F 10.9 °F 65% 29.82 in 7.0 mi West 11.5 mph - 0.00 in Snow Light Snow
7:21 AM 19.4 °F 8.6 °F 12.2 °F 74% 29.79 in 5.0 mi West 9.2 mph - 0.00 in Snow Light Snow
7:54 AM 19.9 °F 8.6 °F 12.0 °F 71% 29.82 in 9.0 mi West 10.4 mph 18.4 mph 0.00 in   Overcast
8:54 AM 21.0 °F 7.1 °F 12.0 °F 68% 29.82 in 10.0 mi West 16.1 mph - 0.00 in   Overcast
9:54 AM 21.9 °F 9.2 °F 12.0 °F 66% 29.82 in 10.0 mi West 13.8 mph 21.9 mph N/A   Overcast
10:54 AM 21.9 °F 7.8 °F 12.0 °F 66% 29.83 in 10.0 mi West 17.3 mph 21.9 mph N/A   Overcast
12:44 PM 24.8 °F 13.4 °F 12.2 °F 59% 29.79 in 10.0 mi West 12.7 mph - 0.00 in   Overcast
12:54 PM 24.1 °F 9.8 °F 12.9 °F 62% 29.83 in 10.0 mi WNW 19.6 mph 24.2 mph 0.00 in   Overcast
1:26 PM 24.8 °F 11.9 °F 12.2 °F 59% 29.79 in 10.0 mi West 16.1 mph 24.2 mph N/A   Overcast
1:54 PM 25.0 °F 11.7 °F 12.9 °F 60% 29.83 in 10.0 mi West 17.3 mph 23.0 mph N/A   Overcast
2:44 PM 24.8 °F 11.5 °F 15.8 °F 69% 29.79 in 1.8 mi West 17.3 mph 24.2 mph 0.00 in Snow Light Snow
2:54 PM 24.1 °F 12.5 °F 17.1 °F 75% 29.83 in 1.0 mi West 12.7 mph - 0.00 in Snow Light Snow
3:18 PM 24.8 °F 14.6 °F 17.6 °F 74% 29.79 in 0.8 mi West 10.4 mph 19.6 mph 0.00 in Snow Light Snow
3:39 PM 24.8 °F 12.9 °F 17.6 °F 74% 29.79 in 1.2 mi WSW 13.8 mph 20.7 mph 0.00 in Snow Light Snow
3:54 PM 24.1 °F 12.5 °F 17.1 °F 75% 29.83 in 1.0 mi West 12.7 mph 19.6 mph 0.00 in Snow Light Snow
3:57 PM 24.8 °F 14.0 °F 17.6 °F 74% 29.79 in 0.8 mi West 11.5 mph 19.6 mph 0.00 in Snow Light Snow
4:13 PM 24.8 °F 12.9 °F 17.6 °F 74% 29.79 in 1.0 mi WSW 13.8 mph 19.6 mph 0.00 in Snow Light Snow
4:41 PM 24.8 °F 13.4 °F 17.6 °F 74% 29.79 in 0.8 mi West 12.7 mph 20.7 mph 0.00 in Snow Light Snow
4:54 PM 24.1 °F 13.7 °F 18.0 °F 77% 29.83 in 0.5 mi West 10.4 mph 21.9 mph 0.00 in Snow Snow
5:54 PM 24.1 °F 12.5 °F 19.0 °F 81% 29.83 in 0.5 mi West 12.7 mph 19.6 mph 0.00 in Snow Snow
6:54 PM 23.0 °F 10.6 °F 18.0 °F 81% 29.84 in 0.8 mi West 13.8 mph - 0.01 in Snow Light Snow
7:10 PM 23.0 °F 11.7 °F 17.6 °F 80% 29.81 in 0.5 mi West 11.5 mph - 0.00 in Snow Snow
7:28 PM 23.0 °F 11.7 °F 19.4 °F 86% 29.81 in 0.5 mi West 11.5 mph 20.7 mph 0.00 in Fog , Snow Snow
7:54 PM 23.0 °F 11.1 °F 19.0 °F 85% 29.85 in 0.5 mi West 12.7 mph - 0.00 in Fog , Snow Snow
8:22 PM 23.0 °F 10.6 °F 19.4 °F 86% 29.81 in 0.8 mi West 13.8 mph 19.6 mph 0.00 in Snow Light Snow
8:45 PM 24.8 °F 15.3 °F 19.4 °F 80% 29.81 in 1.0 mi West 9.2 mph - 0.00 in Snow Light Snow
8:54 PM 24.1 °F 13.1 °F 19.9 °F 84% 29.85 in 1.0 mi West 11.5 mph - 0.00 in Snow Light Snow
9:49 PM 24.8 °F 11.9 °F 19.4 °F 80% 29.80 in 3.0 mi WNW 16.1 mph 23.0 mph 0.01 in Snow Light Snow
9:54 PM 24.1 °F 10.6 °F 19.9 °F 84% 29.84 in 6.0 mi WNW 17.3 mph 23.0 mph 0.01 in Snow Light Snow
10:54 PM 25.0 °F 12.2 °F 19.9 °F 81% 29.83 in 6.0 mi WNW 16.1 mph 23.0 mph 0.00 in Snow Light Snow
11:54 PM 25.0 °F 14.2 °F 21.0 °F 85% 29.83 in 9.0 mi WNW 11.5 mph - 0.00 in Snow Light Snow